Weather History for KLDJ - March, 2014

Change the Weather History Date:

Wednesday, March 19, 2014

  Actual Average (KEWR) Record (KEWR)
Temperature  
Mean Temperature 39 °F 43 °F  
Max Temperature 45 °F 52 °F 77 °F (2012)
Min Temperature 34 °F 34 °F 8 °F (1967)
Degree Days  
Heating Degree Days 26 22  
Month to date heating degree days 471  
Since 1 July heating degree days 4106  
Cooling Degree Days 0 0  
Month to date cooling degree days 0  
Year to date cooling degree days 0  
Moisture  
Dew Point 33 °F    
Average Humidity 79    
Maximum Humidity 98    
Minimum Humidity 67    
Precipitation  
Precipitation 0.50 in 0.14 in 1.40 in (1998)
Month to date precipitation 2.45  
Year to date precipitation 8.87  
Snow  
Snow 0.00 in 0.20 in 12.70 in (1956)
Month to date snowfall 3.5  
Since 1 July snowfall 26.5  
Snow Depth -    
Sea Level Pressure  
Sea Level Pressure 30.18 in    
Wind  
Wind Speed 9 mph (ESE)    
Max Wind Speed 16 mph    
Max Gust Speed 25 mph    
Visibility 8 miles    
Events Rain    
T = Trace of Precipitation, MM = Missing Value Source: NWS Daily Summary

Daily Weather History Graph

Daily Weather History Graph

Search for Another Location

Airport or City:

Trip Planner

Search our weather history database for the weather conditions in past years. The results will help you decide how hot, cold, wet, or windy it might be!

Date:

Astronomy

Mar. 19, 2014 Rise Set
Actual Time 7:02 AM EDT 7:08 PM EDT
Civil Twilight 6:34 AM EDT 7:35 PM EDT
Nautical Twilight 6:02 AM EDT 8:07 PM EDT
Astronomical Twilight 5:30 AM EDT 8:39 PM EDT
Moon 10:24 PM EDT (3/19) 8:25 AM EDT (3/19)
Length of Visible Light 13h 00m
Length of Day
12h 05m
Waning Gibbous, 91% of the Moon is Illuminated
Mar 19
Waning Gibbous
Mar 23
Last Quarter
Mar 30
New
Apr 7
First Quarter
Apr 15
Full

Hourly Weather History & Observations

Time (EDT) Temp. Windchill Dew Point Humidity Pressure Visibility Wind Dir Wind Speed Gust Speed Precip Events Conditions
12:15 AM 35.4 °F 31.5 °F 27.5 °F 73% 30.32 in 10.0 mi East 4.6 mph - N/A   Clear
12:35 AM 35.6 °F 29.9 °F 27.3 °F 72% 30.31 in 10.0 mi ESE 6.9 mph - N/A   Clear
12:55 AM 35.6 °F 29.9 °F 27.5 °F 72% 30.30 in 10.0 mi East 6.9 mph - N/A   Clear
1:15 AM 35.1 °F 30.1 °F 27.5 °F 74% 30.29 in 10.0 mi ESE 5.8 mph - N/A   Clear
1:35 AM 34.9 °F 28.3 °F 27.7 °F 75% 30.29 in 10.0 mi East 8.1 mph - N/A   Clear
1:55 AM 35.1 °F 28.6 °F 28.4 °F 77% 30.29 in 10.0 mi East 8.1 mph - N/A   Clear
2:15 AM 34.9 °F 29.0 °F 28.2 °F 77% 30.30 in 10.0 mi East 6.9 mph - N/A   Scattered Clouds
2:35 AM 34.7 °F 29.6 °F 28.0 °F 77% 30.30 in 10.0 mi East 5.8 mph - N/A   Clear
2:55 AM 34.3 °F 28.4 °F 27.5 °F 76% 30.29 in 10.0 mi East 6.9 mph - N/A   Clear
3:15 AM 34.2 °F 28.2 °F 27.5 °F 77% 30.29 in 10.0 mi East 6.9 mph - N/A   Clear
3:35 AM 34.0 °F 28.0 °F 27.5 °F 77% 30.29 in 10.0 mi East 6.9 mph - N/A   Clear
3:55 AM 34.0 °F 28.8 °F 27.5 °F 77% 30.29 in 10.0 mi East 5.8 mph - N/A   Clear
4:15 AM 34.0 °F 31.0 °F 27.5 °F 77% 30.29 in 10.0 mi East 3.5 mph - N/A   Scattered Clouds
4:35 AM 34.2 °F 28.2 °F 27.9 °F 78% 30.30 in 10.0 mi East 6.9 mph - N/A   Mostly Cloudy
4:55 AM 34.3 °F 28.4 °F 28.2 °F 78% 30.30 in 10.0 mi East 6.9 mph - N/A   Mostly Cloudy
5:15 AM 34.7 °F 27.5 °F 28.4 °F 78% 30.31 in 10.0 mi East 9.2 mph - N/A   Overcast
5:35 AM 34.7 °F 28.8 °F 28.4 °F 78% 30.30 in 10.0 mi East 6.9 mph - N/A   Overcast
5:55 AM 34.7 °F 28.1 °F 28.4 °F 78% 30.31 in 10.0 mi East 8.1 mph - N/A   Overcast
6:15 AM 34.9 °F 29.0 °F 28.4 °F 77% 30.33 in 10.0 mi East 6.9 mph - N/A   Overcast
6:35 AM 35.1 °F 27.9 °F 28.4 °F 77% 30.33 in 10.0 mi East 9.2 mph - N/A   Overcast
6:55 AM 35.1 °F 29.3 °F 28.4 °F 77% 30.33 in 10.0 mi East 6.9 mph - N/A   Overcast
7:15 AM 35.6 °F 28.6 °F 28.8 °F 76% 30.33 in 10.0 mi East 9.2 mph - N/A   Overcast
7:35 AM 35.6 °F 27.5 °F 28.6 °F 76% 30.32 in 10.0 mi East 11.5 mph - N/A   Overcast
7:55 AM 35.6 °F 28.0 °F 28.6 °F 76% 30.32 in 10.0 mi East 10.4 mph - N/A   Overcast
8:15 AM 36.0 °F 29.6 °F 28.9 °F 76% 30.32 in 10.0 mi East 8.1 mph - N/A   Overcast
8:35 AM 36.9 °F 29.6 °F 29.3 °F 74% 30.31 in 10.0 mi East 10.4 mph - N/A   Overcast
8:55 AM 37.4 °F 29.8 °F 29.3 °F 73% 30.30 in 10.0 mi ESE 11.5 mph - N/A   Overcast
9:15 AM 38.3 °F 31.4 °F 29.8 °F 72% 30.29 in 10.0 mi ESE 10.4 mph 16.1 mph N/A   Overcast
9:35 AM 38.8 °F 30.8 °F 30.2 °F 71% 30.29 in 10.0 mi ESE 13.8 mph - N/A   Overcast
9:55 AM 39.9 °F 32.9 °F 30.7 °F 70% 30.29 in 4.0 mi ESE 11.5 mph - N/A   Unknown
10:15 AM 40.3 °F 33.4 °F 31.1 °F 70% 30.29 in 3.0 mi SE 11.5 mph - N/A   Unknown
10:35 AM 40.8 °F 34.1 °F 31.5 °F 69% 30.29 in 3.0 mi ESE 11.5 mph - N/A   Unknown
10:55 AM 41.0 °F 33.9 °F 31.3 °F 68% 30.28 in 4.0 mi SE 12.7 mph 17.3 mph N/A   Unknown
11:15 AM 40.6 °F 34.3 °F 32.0 °F 71% 30.29 in 4.0 mi SE 10.4 mph 24.2 mph N/A   Unknown
11:35 AM 41.4 °F 34.0 °F 32.2 °F 70% 30.28 in 10.0 mi ESE 13.8 mph - N/A   Overcast
11:55 AM 41.5 °F 35.4 °F 32.0 °F 69% 30.27 in 10.0 mi SE 10.4 mph - N/A   Unknown
12:15 PM 42.3 °F 35.1 °F 32.0 °F 67% 30.26 in 10.0 mi SE 13.8 mph 18.4 mph N/A   Overcast
12:35 PM 42.3 °F 35.9 °F 32.2 °F 67% 30.25 in 10.0 mi ESE 11.5 mph 16.1 mph N/A   Overcast
12:55 PM 42.6 °F 36.3 °F 32.5 °F 68% 30.24 in 10.0 mi ESE 11.5 mph 17.3 mph N/A   Overcast
1:15 PM 42.1 °F 35.2 °F 32.2 °F 68% 30.24 in 10.0 mi ESE 12.7 mph 18.4 mph N/A   Overcast
1:35 PM 42.1 °F 34.9 °F 32.5 °F 69% 30.22 in 10.0 mi ESE 13.8 mph 18.4 mph N/A   Overcast
1:55 PM 42.1 °F 34.5 °F 32.5 °F 69% 30.20 in 10.0 mi SE 15.0 mph 20.7 mph N/A   Unknown
2:15 PM 42.3 °F 34.8 °F 32.9 °F 69% 30.19 in 10.0 mi SE 15.0 mph - N/A   Overcast
2:35 PM 42.3 °F 34.8 °F 33.1 °F 70% 30.16 in 10.0 mi SE 15.0 mph 25.3 mph N/A   Overcast
2:55 PM 42.8 °F 35.1 °F 33.4 °F 70% 30.15 in 10.0 mi SE 16.1 mph 21.9 mph N/A   Overcast
3:15 PM 42.1 °F 34.5 °F 33.4 °F 71% 30.15 in 10.0 mi SE 15.0 mph 21.9 mph N/A   Overcast
3:35 PM 41.4 °F 34.0 °F 33.8 °F 74% 30.14 in 10.0 mi SE 13.8 mph - N/A   Overcast
3:55 PM 41.0 °F 35.2 °F 35.2 °F 80% 30.14 in 7.0 mi SE 9.2 mph - N/A Rain Rain
4:15 PM 41.0 °F 33.5 °F 35.6 °F 81% 30.12 in 5.0 mi SE 13.8 mph 19.6 mph N/A Rain Light Rain
4:35 PM 40.8 °F 34.1 °F 35.8 °F 82% 30.11 in 4.0 mi SE 11.5 mph - N/A   Light Drizzle
4:55 PM 40.5 °F 33.2 °F 36.5 °F 86% 30.09 in 3.0 mi SE 12.7 mph 19.6 mph N/A Rain Light Rain
5:15 PM 40.8 °F 33.7 °F 37.0 °F 86% 30.07 in 4.0 mi ESE 12.7 mph 19.6 mph N/A Rain Light Rain
5:35 PM 41.0 °F 33.5 °F 37.4 °F 87% 30.06 in 4.0 mi ESE 13.8 mph 20.7 mph N/A Rain Light Rain
5:55 PM 41.2 °F 33.4 °F 37.6 °F 87% 30.05 in 4.0 mi ESE 15.0 mph 19.6 mph N/A Rain Light Rain
6:15 PM 41.4 °F 35.2 °F 37.8 °F 87% 30.04 in 5.0 mi ESE 10.4 mph 16.1 mph N/A Rain Light Rain
6:35 PM 41.9 °F 36.9 °F 37.9 °F 86% 30.04 in 7.0 mi ESE 8.1 mph 16.1 mph N/A Rain Rain
6:55 PM 41.9 °F 35.4 °F 38.3 °F 87% 30.03 in 2.5 mi SE 11.5 mph 16.1 mph N/A Rain Rain
7:15 PM 41.5 °F 36.4 °F 38.8 °F 90% 30.03 in 3.0 mi ESE 8.1 mph - 0.02 in Rain Heavy Rain
7:35 PM 41.5 °F 35.9 °F 39.2 °F 91% 30.01 in 3.0 mi SE 9.2 mph - 0.04 in Rain Light Rain
7:55 PM 41.9 °F 35.9 °F 39.9 °F 93% 29.99 in 7.0 mi ESE 10.4 mph 16.1 mph 0.04 in   Overcast
8:15 PM 42.3 °F 36.3 °F 40.3 °F 93% 29.96 in 5.0 mi SE 10.4 mph 20.7 mph N/A   Overcast
8:35 PM 42.8 °F 36.2 °F 41.0 °F 93% 29.94 in 5.0 mi SE 12.7 mph - N/A   Light Drizzle
8:55 PM 42.8 °F 37.0 °F 41.2 °F 94% 29.92 in 5.0 mi SE 10.4 mph 20.7 mph 0.01 in Rain Light Rain
9:15 PM 42.3 °F 36.8 °F 40.6 °F 94% 29.91 in 4.0 mi SE 9.2 mph 19.6 mph 0.04 in Rain Light Rain
9:35 PM 42.4 °F 37.5 °F 41.0 °F 95% 29.91 in 3.0 mi SSE 8.1 mph - 0.10 in Rain Rain
9:55 PM 43.0 °F 36.8 °F 41.9 °F 96% 29.89 in 3.0 mi ESE 11.5 mph - 0.16 in Rain Rain
10:15 PM 43.7 °F 39.7 °F 43.0 °F 97% 29.92 in 4.0 mi West 6.9 mph - 0.02 in Rain Light Rain
10:35 PM 43.7 °F 39.1 °F 42.8 °F 97% 29.89 in 3.0 mi ENE 8.1 mph - 0.13 in Rain Rain
10:55 PM 44.1 °F 40.8 °F 43.3 °F 97% 29.89 in 4.0 mi ENE 5.8 mph - 0.19 in Rain Rain
11:15 PM 44.6 °F 43.1 °F 43.9 °F 97% 29.88 in 3.0 mi NE 3.5 mph - 0.05 in Rain Rain
11:35 PM 44.8 °F 43.3 °F 44.2 °F 98% 29.86 in 4.0 mi ENE 3.5 mph - 0.08 in Rain Light Rain
11:55 PM 45.1 °F - 44.6 °F 98% 29.86 in 3.0 mi Calm Calm - 0.10 in Rain Light Rain